This is the latest recevied weather packets stored in our database for station/object AC2VK-1. If no packets are shown the sender has not sent any weather packets the latest 10 day(s).
| Time | Temp. | Humidity | Pressure | Rain* | Wind** | Luminosity | Snow |
|---|---|---|---|---|---|---|---|
| 1778104753 | 18.89° C | 91% | 1012.6 hPa | 1.02 mm | - | - | - |
| 1778104153 | 18.89° C | 90% | 1012.8 hPa | 0.76 mm | - | - | - |
| 1778103553 | 19.44° C | 90% | 1012.8 hPa | 0.51 mm | - | - | - |
| 1778102953 | 19.44° C | 90% | 1012.5 hPa | 0.25 mm | - | - | - |
| 1778102353 | 19.44° C | 91% | 1011.8 hPa | 0.25 mm | - | - | - |
| 1778101753 | 19.44° C | 92% | 1011.2 hPa | 1.02 mm | - | - | - |
| 1778101153 | 19.44° C | 92% | 1011.7 hPa | 1.27 mm | - | - | - |
| 1778100553 | 18.89° C | 93% | 1011.8 hPa | 1.27 mm | - | - | - |
| 1778099953 | 18.89° C | 93% | 1012.1 hPa | 1.78 mm | - | - | - |
| 1778099353 | 18.89° C | 92% | 1012.5 hPa | 2.29 mm | - | - | - |
| 1778098753 | 18.89° C | 92% | 1012.8 hPa | 2.03 mm | - | - | - |
| 1778098153 | 18.89° C | 92% | 1013.1 hPa | 1.27 mm | - | - | - |
| 1778097553 | 19.44° C | 92% | 1013.2 hPa | 1.27 mm | - | - | - |
| 1778096953 | 19.44° C | 92% | 1013 hPa | 1.52 mm | - | - | - |
| 1778096353 | 19.44° C | 91% | 1013.7 hPa | 1.02 mm | - | - | - |
| 1778095753 | 19.44° C | 90% | 1013.2 hPa | 0.51 mm | - | - | - |
| 1778095153 | 19.44° C | 90% | 1013.5 hPa | 0.51 mm | - | - | - |
| 1778094553 | 20° C | 89% | 1013.5 hPa | 0.51 mm | - | - | - |
| 1778093953 | 20° C | 87% | 1013.5 hPa | 0.25 mm | - | - | - |
| 1778093353 | 20.56° C | 84% | 1014.2 hPa | 0 mm | - | - | - |
| 1778092753 | 21.11° C | 82% | 1014.1 hPa | 0 mm | - | - | - |
| 1778092153 | 21.67° C | 81% | 1013.7 hPa | 0 mm | - | - | - |
| 1778091553 | 21.67° C | 80% | 1014 hPa | 0 mm | - | - | - |
| 1778090953 | 22.22° C | 80% | 1013.9 hPa | 0 mm | - | - | - |
| 1778090353 | 22.22° C | 80% | 1013.5 hPa | 0 mm | - | - | - |
* Rain latest hour (hover to see other rain measurements)
** Current wind speed in m/s (hover to see current wind gust speed)